Tracking 19242 objects as of 15-Aug-2018
HD Live streaming from Space Station
objects crossing your sky now

SL-24 DEB

Track SL-24 DEB now!
10-day predictions


NORAD ID: 40048
Int'l Code: 2014-033AQ
Perigee: 451.6 km
Apogee: 474.8 km
Inclination: 98.0 °
Period: 93.7 minutes
Semi major axis: 6834 km
RCS: Unknown
Launch date: June 19, 2014
Source: Commonwealth of Independent States (former USSR) (CIS)
Launch site: Orenburg, Russia (OREN)

Note: This is SATELLITE DEBRIS
aabbcc
Your satellite tracking list
Your tracking list is empty




NASA's NSSDC Master Catalog

Two Line Element Set (TLE):
1 40048U 14033AQ  18225.94681227 +.00008998 +00000-0 +25295-3 0  9994
2 40048 098.0264 225.8918 0016991 175.9423 184.1960 15.36636290230060
Source of the keplerian elements: AFSPC